• Em Portugal
  • Lista de países
  • Para 7 dias
  • Temperatura da água
  • Mapas de satélite
  • Mapa do tempo
  • Widgets de tempo
  • user-avatar
    Iniciar Sessão

    Previsão horária em Sacapa

    Hoje, 22 Setembro, Sexta-feira

    Tempo Temperatura Precipitação Vento Pressão Humidade
    00:00 +20°C° 0 mm 0 m/s 695 mmHg 95%
    01:00 +20°C° 0 mm 0 m/s 695 mmHg 96%
    02:00 +20°C° 0 mm 0 m/s 695 mmHg 96%
    03:00 +20°C° 0 mm 0 m/s 694 mmHg 96%
    04:00 +20°C° 0 mm 0 m/s 695 mmHg 96%
    05:00 +19°C° 0 mm 0 m/s 695 mmHg 96%
    06:00 +19°C° 0 mm 0 m/s 695 mmHg 95%
    07:00 +22°C° 0 mm 0 m/s 695 mmHg 86%
    08:00 +25°C° 0 mm 0 m/s 696 mmHg 76%
    09:00 +27°C° 0 mm 0 m/s 697 mmHg 66%
    10:00 +29°C° 0,3 mm 0 m/s 696 mmHg 61%
    11:00 +32°C° 0,3 mm 1 m/s 696 mmHg 57%
    12:00 +33°C° 0,3 mm 1 m/s 696 mmHg 52%
    13:00 +32°C° 1,1 mm 1 m/s 695 mmHg 56%
    14:00 +32°C° 1,1 mm 1 m/s 694 mmHg 61%
    15:00 +31°C° 1,1 mm 1 m/s 694 mmHg 65%
    16:00 +29°C° 2,2 mm 1 m/s 694 mmHg 73%
    17:00 +27°C° 2,2 mm 1 m/s 693 mmHg 81%
    18:00 +25°C° 2,2 mm 1 m/s 693 mmHg 89%
    19:00 +24°C° 2,3 mm 1 m/s 694 mmHg 90%
    20:00 +22°C° 2,3 mm 0 m/s 694 mmHg 91%
    21:00 +21°C° 2,3 mm 0 m/s 695 mmHg 93%
    22:00 +21°C° 1,1 mm 0 m/s 695 mmHg 93%
    23:00 +21°C° 1,1 mm 0 m/s 695 mmHg 94%

    Amanhã, 23 Setembro, Sábado

    Tempo Temperatura Precipitação Vento Pressão Humidade
    00:00 +20°C° 1,1 mm 0 m/s 695 mmHg 94%
    01:00 +20°C° 0,2 mm 0 m/s 694 mmHg 94%
    02:00 +20°C° 0,2 mm 0 m/s 694 mmHg 94%
    03:00 +20°C° 0,2 mm 0 m/s 693 mmHg 94%
    04:00 +20°C° 0,1 mm 0 m/s 694 mmHg 94%
    05:00 +20°C° 0,1 mm 0 m/s 694 mmHg 94%
    06:00 +19°C° 0,1 mm 0 m/s 694 mmHg 94%
    07:00 +22°C° 0,1 mm 0 m/s 695 mmHg 85%
    08:00 +25°C° 0,1 mm 0 m/s 695 mmHg 76%
    09:00 +27°C° 0,1 mm 0 m/s 696 mmHg 66%
    10:00 +30°C° 0,3 mm 1 m/s 696 mmHg 62%
    11:00 +32°C° 0,3 mm 1 m/s 696 mmHg 58%
    12:00 +33°C° 0,3 mm 1 m/s 695 mmHg 54%
    13:00 +32°C° 0,9 mm 1 m/s 695 mmHg 57%
    14:00 +32°C° 0,9 mm 1 m/s 694 mmHg 60%
    15:00 +31°C° 0,9 mm 1 m/s 693 mmHg 63%
    16:00 +29°C° 1,7 mm 1 m/s 693 mmHg 71%
    17:00 +27°C° 1,7 mm 1 m/s 693 mmHg 80%
    18:00 +25°C° 1,7 mm 1 m/s 693 mmHg 89%
    19:00 +24°C° 1,7 mm 1 m/s 694 mmHg 90%
    20:00 +22°C° 1,7 mm 0 m/s 694 mmHg 91%
    21:00 +21°C° 1,7 mm 0 m/s 695 mmHg 93%
    22:00 +21°C° 0,9 mm 0 m/s 695 mmHg 93%
    23:00 +21°C° 0,9 mm 0 m/s 695 mmHg 93%

    Depois de amanhã, 24 Setembro, Domingo

    Tempo Temperatura Precipitação Vento Pressão Humidade
    00:00 +21°C° 0,9 mm 0 m/s 695 mmHg 94%
    01:00 +20°C° 0,5 mm 0 m/s 694 mmHg 94%
    02:00 +20°C° 0,5 mm 0 m/s 694 mmHg 94%
    03:00 +20°C° 0,5 mm 0 m/s 693 mmHg 94%
    04:00 +20°C° 0,2 mm 0 m/s 693 mmHg 94%
    05:00 +20°C° 0,2 mm 0 m/s 694 mmHg 94%
    06:00 +20°C° 0,2 mm 0 m/s 694 mmHg 94%
    07:00 +21°C° 0,1 mm 0 m/s 694 mmHg 89%
    08:00 +23°C° 0,1 mm 0 m/s 695 mmHg 83%
    09:00 +25°C° 0,1 mm 0 m/s 696 mmHg 78%
    10:00 +26°C° 0,3 mm 0 m/s 696 mmHg 72%
    11:00 +28°C° 0,3 mm 0 m/s 695 mmHg 66%
    12:00 +32°C° 0,3 mm 1 m/s 695 mmHg 59%
    13:00 +31°C° 1 mm 1 m/s 695 mmHg 64%
    14:00 +30°C° 1 mm 1 m/s 694 mmHg 68%
    15:00 +29°C° 1 mm 1 m/s 693 mmHg 72%
    16:00 +27°C° 1,8 mm 1 m/s 693 mmHg 79%
    17:00 +26°C° 1,8 mm 1 m/s 693 mmHg 86%
    18:00 +24°C° 1,8 mm 1 m/s 693 mmHg 93%
    19:00 +22°C° 1,1 mm 0 m/s 693 mmHg 93%
    20:00 +22°C° 1,1 mm 0 m/s 694 mmHg 94%
    21:00 +21°C° 1,1 mm 0 m/s 694 mmHg 94%
    22:00 +21°C° 0,6 mm 0 m/s 694 mmHg 94%
    23:00 +21°C° 0,6 mm 0 m/s 694 mmHg 95%

    25 Setembro, Segunda-feira

    Tempo Temperatura Precipitação Vento Pressão Humidade
    00:00 +21°C° 0,6 mm 0 m/s 694 mmHg 95%
    01:00 +20°C° 0,4 mm 0 m/s 694 mmHg 95%
    02:00 +20°C° 0,4 mm 0 m/s 693 mmHg 95%
    03:00 +20°C° 0,4 mm 0 m/s 693 mmHg 95%
    04:00 +20°C° 0,3 mm 0 m/s 693 mmHg 95%
    05:00 +20°C° 0,3 mm 0 m/s 693 mmHg 95%
    06:00 +20°C° 0,3 mm 0 m/s 693 mmHg 95%
    07:00 +24°C° 0,1 mm 1 m/s 693 mmHg 88%
    08:00 +26°C° 0,1 mm 1 m/s 694 mmHg 81%
    09:00 +27°C° 0,1 mm 1 m/s 694 mmHg 74%
    10:00 +27°C° 1,4 mm 1 m/s 694 mmHg 79%
    11:00 +26°C° 1,4 mm 2 m/s 693 mmHg 83%
    12:00 +25°C° 1,4 mm 2 m/s 693 mmHg 88%
    13:00 +25°C° 2,2 mm 2 m/s 692 mmHg 90%
    14:00 +25°C° 2,2 mm 1 m/s 692 mmHg 92%
    15:00 +24°C° 2,2 mm 1 m/s 691 mmHg 94%
    16:00 +24°C° 1,9 mm 1 m/s 692 mmHg 95%
    17:00 +24°C° 1,9 mm 1 m/s 692 mmHg 96%
    18:00 +23°C° 1,9 mm 1 m/s 692 mmHg 96%
    19:00 +23°C° 0,4 mm 1 m/s 693 mmHg 96%
    20:00 +23°C° 0,4 mm 1 m/s 693 mmHg 96%
    21:00 +22°C° 0,4 mm 1 m/s 694 mmHg 96%
    22:00 +22°C° 0 mm 1 m/s 693 mmHg 96%
    23:00 +22°C° 0 mm 1 m/s 693 mmHg 96%

    26 Setembro, Terça-feira

    Tempo Temperatura Precipitação Vento Pressão Humidade
    00:00 +22°C° 0 mm 1 m/s 693 mmHg 96%
    01:00 +22°C° 0,3 mm 1 m/s 693 mmHg 96%
    02:00 +22°C° 0,3 mm 1 m/s 692 mmHg 96%
    03:00 +22°C° 0,3 mm 1 m/s 692 mmHg 96%
    04:00 +22°C° 0,7 mm 1 m/s 693 mmHg 96%
    05:00 +22°C° 0,7 mm 1 m/s 693 mmHg 96%
    06:00 +22°C° 0,7 mm 1 m/s 693 mmHg 96%
    07:00 +22°C° 0,6 mm 1 m/s 694 mmHg 94%
    08:00 +23°C° 0,6 mm 1 m/s 694 mmHg 92%
    09:00 +24°C° 0,6 mm 1 m/s 695 mmHg 91%
    10:00 +25°C° 0,4 mm 1 m/s 694 mmHg 88%
    11:00 +25°C° 0,4 mm 2 m/s 694 mmHg 84%
    12:00 +26°C° 0,4 mm 2 m/s 694 mmHg 81%
    13:00 +27°C° 0,4 mm 2 m/s 693 mmHg 79%
    14:00 +27°C° 0,4 mm 2 m/s 693 mmHg 77%
    15:00 +27°C° 0,4 mm 2 m/s 692 mmHg 75%
    16:00 +26°C° 0,2 mm 2 m/s 693 mmHg 79%
    17:00 +25°C° 0,2 mm 2 m/s 693 mmHg 82%
    18:00 +24°C° 0,2 mm 1 m/s 693 mmHg 86%
    19:00 +24°C° 0 mm 1 m/s 694 mmHg 87%
    20:00 +23°C° 0 mm 1 m/s 694 mmHg 88%
    21:00 +23°C° 0 mm 1 m/s 694 mmHg 89%
    22:00 +23°C° 0,1 mm 1 m/s 694 mmHg 90%
    23:00 +23°C° 0,1 mm 1 m/s 694 mmHg 90%

    27 Setembro, Quarta-feira

    Tempo Temperatura Precipitação Vento Pressão Humidade
    00:00 +22°C° 0,1 mm 1 m/s 693 mmHg 90%
    01:00 +22°C° 0,2 mm 1 m/s 693 mmHg 90%
    02:00 +22°C° 0,2 mm 1 m/s 693 mmHg 90%
    03:00 +22°C° 0,2 mm 1 m/s 693 mmHg 91%
    04:00 +22°C° 0,1 mm 1 m/s 693 mmHg 91%
    05:00 +22°C° 0,1 mm 1 m/s 693 mmHg 91%
    06:00 +22°C° 0,1 mm 1 m/s 693 mmHg 91%
    07:00 +23°C° 0,1 mm 1 m/s 694 mmHg 87%
    08:00 +24°C° 0,1 mm 1 m/s 694 mmHg 83%
    09:00 +26°C° 0,1 mm 1 m/s 695 mmHg 78%
    10:00 +26°C° 0,2 mm 2 m/s 695 mmHg 75%
    11:00 +27°C° 0,2 mm 2 m/s 694 mmHg 72%
    12:00 +28°C° 0,2 mm 2 m/s 694 mmHg 69%
    13:00 +28°C° 0,3 mm 2 m/s 694 mmHg 69%
    14:00 +28°C° 0,3 mm 2 m/s 693 mmHg 68%
    15:00 +28°C° 0,3 mm 1 m/s 692 mmHg 68%
    16:00 +27°C° 0,1 mm 1 m/s 693 mmHg 73%
    17:00 +26°C° 0,1 mm 1 m/s 693 mmHg 79%
    18:00 +24°C° 0,1 mm 1 m/s 693 mmHg 84%
    19:00 +24°C° 0 mm 1 m/s 693 mmHg 86%
    20:00 +23°C° 0 mm 1 m/s 694 mmHg 87%
    21:00 +23°C° 0 mm 1 m/s 694 mmHg 89%
    22:00 +22°C° 0 mm 1 m/s 694 mmHg 90%
    23:00 +22°C° 0 mm 1 m/s 694 mmHg 90%
    Mostrar mais